Overview Statistics Trail Chart Weather Telemetry Raw packets
 

This is the latest recevied weather packets stored in our database for station/object W8RSN-13. If no packets are shown the sender has not sent any weather packets the latest 10 day(s).

<< 46 47 48 49 50 51 52 >>
Time Temp. Humidity Pressure Rain* Wind** Luminosity Snow
1788366865 22.22° C 53% 1018.2 hPa - - - -
1788366564 22.22° C 53% 1018.2 hPa - - - -
1788366263 22.22° C 52% 1018.1 hPa - - - -
1788365962 22.22° C 52% 1018.2 hPa - - - -
1788365661 21.67° C 52% 1018.2 hPa - - - -
1788365361 21.67° C 53% 1018.3 hPa - - - -
1788365059 21.11° C 53% 1018.2 hPa - - - -
1788364759 21.67° C 51% 1018.5 hPa - - - -
1788364458 21.11° C 53% 1018.1 hPa - - - -
1788364157 20.56° C 54% 1018 hPa - - - -
1788363856 20.56° C 55% 1018 hPa - - - -
1788363575 20.56° C 55% 1018.1 hPa - - - -
1788363274 21.11° C 55% 1017.8 hPa - - - -
1788362973 20.56° C 57% 1018.2 hPa - - - -
1788362673 20° C 55% 1018.1 hPa - - - -
1788362372 20° C 57% 1017.8 hPa - - - -
1788362071 19.44° C 60% 1018 hPa - - - -
1788361770 18.33° C 61% 1018.1 hPa - - - -
1788361469 18.33° C 60% 1018 hPa - - - -
1788361168 18.33° C 61% 1018.1 hPa - - - -
1788360867 18.33° C 62% 1018.2 hPa - - - -
1788360566 17.78° C 63% 1018.2 hPa - - - -
1788360265 17.22° C 64% 1018.2 hPa - - - -
1788359965 17.22° C 62% 1018.1 hPa - - - -
1788359664 17.22° C 64% 1017.9 hPa - - - -

* Rain since midnight (hover to see other rain measurements)
** Current wind speed in m/s (hover to see current wind gust speed)